| time (UTC) | temp F | wind direction | speed knots | gust knots | rain 1hr in | rain 24hr in | rain mn in | humidity % | barometer mb |
| 20260507171502 | 50 | 120 | 2.6 | 0.0 | 0.00 | 0.00 | 0.00 | 74 | 1010.6 |
| 20260507170002 | 50 | 120 | 2.6 | 0.0 | 0.00 | 0.00 | 0.00 | 74 | 1010.6 |
| 20260507164502 | 50 | 130 | 3.5 | 0.0 | 0.00 | 0.00 | 0.00 | 73 | 1010.6 |
| 20260507163002 | 50 | 130 | 3.5 | 0.0 | 0.00 | 0.00 | 0.00 | 73 | 1010.6 |
| 20260507161502 | 50 | 130 | 3.5 | 0.0 | 0.00 | 0.00 | 0.00 | 72 | 1010.4 |
| 20260507160002 | 50 | 110 | 2.6 | 0.0 | 0.00 | 0.00 | 0.00 | 72 | 1010.4 |
| 20260507154503 | 50 | 110 | 2.6 | 0.0 | 0.00 | 0.00 | 0.00 | 74 | 1010.2 |
| 20260507153002 | 50 | 90 | 2.6 | 0.0 | 0.00 | 0.00 | 0.00 | 74 | 1010.2 |
| 20260507151502 | 50 | 70 | 2.6 | 0.0 | 0.00 | 0.00 | 0.00 | 72 | 1010.0 |
| 20260507150002 | 50 | 70 | 2.6 | 0.0 | 0.00 | 0.00 | 0.00 | 72 | 1010.0 |
| 20260507144502 | 49 | 70 | 2.6 | 0.0 | 0.00 | 0.00 | 0.00 | 73 | 1009.9 |
| 20260507143002 | 49 | 50 | 6.1 | 0.0 | 0.00 | 0.00 | 0.00 | 73 | 1009.9 |
| 20260507141502 | 49 | 50 | 6.1 | 0.0 | 0.00 | 0.00 | 0.00 | 74 | 1009.8 |
| 20260507140002 | 49 | 60 | 5.2 | 0.0 | 0.00 | 0.00 | 0.00 | 74 | 1009.8 |
| 20260507134502 | 48 | 70 | 7.8 | 0.0 | 0.00 | 0.00 | 0.00 | 74 | 1009.7 |
| 20260507133002 | 48 | 70 | 7.8 | 0.0 | 0.00 | 0.00 | 0.00 | 74 | 1009.7 |
| 20260507131502 | 48 | 70 | 7.8 | 0.0 | 0.00 | 0.00 | 0.00 | 76 | 1009.5 |
| 20260507130003 | 48 | 60 | 7.0 | 0.0 | 0.00 | 0.00 | 0.00 | 76 | 1009.5 |
| 20260507124502 | 47 | 60 | 7.0 | 0.0 | 0.00 | 0.00 | 0.00 | 77 | 1009.5 |
| 20260507123002 | 47 | 50 | 8.7 | 0.0 | 0.00 | 0.00 | 0.00 | 77 | 1009.5 |
| 20260507121502 | 47 | 40 | 7.8 | 0.0 | 0.00 | 0.00 | 0.00 | 77 | 1009.2 |
| 20260507120002 | 47 | 40 | 7.8 | 0.0 | 0.00 | 0.00 | 0.00 | 77 | 1009.2 |
| 20260507114502 | 47 | 60 | 7.8 | 0.0 | 0.00 | 0.00 | 0.00 | 77 | 1009.1 |
| 20260507113002 | 47 | 60 | 7.8 | 0.0 | 0.00 | 0.00 | 0.00 | 77 | 1009.1 |
| 20260507111503 | 46 | 20 | 7.8 | 0.0 | 0.00 | 0.00 | 0.00 | 81 | 1008.9 |
| 20260507110002 | 46 | 20 | 7.8 | 0.0 | 0.00 | 0.00 | 0.00 | 81 | 1008.9 |
| 20260507104502 | 47 | 50 | 7.0 | 0.0 | 0.00 | 0.00 | 0.00 | 81 | 1008.6 |
| 20260507103003 | 47 | 50 | 7.0 | 0.0 | 0.00 | 0.00 | 0.00 | 81 | 1008.6 |
| 20260507101502 | 47 | 40 | 9.6 | 0.0 | 0.00 | 0.00 | 0.00 | 79 | 1008.2 |
| 20260507100002 | 47 | 40 | 9.6 | 0.0 | 0.00 | 0.00 | 0.00 | 79 | 1008.2 |
| 20260507094502 | 46 | 40 | 9.6 | 0.0 | 0.00 | 0.00 | 0.00 | 81 | 1007.9 |
| 20260507093002 | 46 | 40 | 8.7 | 0.0 | 0.00 | 0.00 | 0.00 | 81 | 1007.9 |
| 20260507091502 | 46 | 50 | 9.6 | 0.0 | 0.00 | 0.00 | 0.00 | 79 | 1007.5 |
| 20260507090002 | 46 | 50 | 9.6 | 0.0 | 0.00 | 0.00 | 0.00 | 79 | 1007.5 |
| 20260507084503 | 46 | 50 | 9.6 | 0.0 | 0.00 | 0.00 | 0.00 | 78 | 1007.2 |
| 20260507083002 | 46 | 50 | 9.6 | 0.0 | 0.00 | 0.00 | 0.00 | 78 | 1007.2 |
| 20260507081503 | 46 | 50 | 9.6 | 0.0 | 0.00 | 0.00 | 0.00 | 79 | 1007.0 |
| 20260507080002 | 46 | 60 | 10.4 | 0.0 | 0.00 | 0.00 | 0.00 | 79 | 1007.0 |
| 20260507074502 | 45 | 60 | 10.4 | 0.0 | 0.00 | 0.00 | 0.00 | 82 | 1006.8 |
| 20260507073002 | 45 | 50 | 9.6 | 0.0 | 0.00 | 0.00 | 0.00 | 82 | 1006.8 |
| 20260507071503 | 45 | 50 | 9.6 | 0.0 | 0.00 | 0.00 | 0.00 | 83 | 1006.5 |
| 20260507070003 | 45 | 50 | 8.7 | 0.0 | 0.00 | 0.00 | 0.00 | 83 | 1006.5 |
| 20260507064502 | 45 | 50 | 8.7 | 0.0 | 0.00 | 0.00 | 0.00 | 84 | 1006.2 |
| 20260507063002 | 45 | 60 | 8.7 | 0.0 | 0.00 | 0.00 | 0.00 | 84 | 1006.2 |
| 20260507061502 | 45 | 60 | 8.7 | 0.0 | 0.00 | 0.00 | 0.00 | 84 | 1006.0 |
| 20260507060002 | 45 | 50 | 8.7 | 0.0 | 0.00 | 0.00 | 0.00 | 84 | 1006.0 |
| 20260507054502 | 45 | 50 | 8.7 | 0.0 | 0.00 | 0.00 | 0.00 | 84 | 1005.7 |
| 20260507053002 | 45 | 50 | 7.8 | 0.0 | 0.00 | 0.00 | 0.00 | 84 | 1005.7 |
| 20260507051502 | 45 | 50 | 7.8 | 0.0 | 0.00 | 0.00 | 0.00 | 83 | 1005.4 |
| 20260507050002 | 45 | 60 | 7.8 | 0.0 | 0.00 | 0.00 | 0.00 | 83 | 1005.4 |
| 20260507044503 | 45 | 60 | 7.8 | 0.0 | 0.00 | 0.00 | 0.00 | 83 | 1005.0 |
| 20260507043002 | 45 | 70 | 8.7 | 0.0 | 0.00 | 0.00 | 0.00 | 83 | 1005.0 |
| 20260507041502 | 44 | 70 | 9.6 | 0.0 | 0.00 | 0.00 | 0.00 | 85 | 1005.1 |
| 20260507040002 | 44 | 70 | 9.6 | 0.0 | 0.00 | 0.00 | 0.00 | 85 | 1005.1 |
| 20260507034502 | 44 | 40 | 9.6 | 0.0 | 0.00 | 0.00 | 0.00 | 85 | 1004.9 |
| 20260507033003 | 44 | 40 | 9.6 | 0.0 | 0.00 | 0.00 | 0.00 | 85 | 1004.9 |
| 20260507031502 | 44 | 50 | 7.0 | 0.0 | 0.00 | 0.00 | 0.00 | 85 | 1004.8 |
| 20260507030003 | 44 | 50 | 7.0 | 0.0 | 0.00 | 0.00 | 0.00 | 85 | 1004.8 |
| 20260506204502 | 51 | 40 | 7.8 | 0.0 | 0.00 | 0.00 | 0.00 | 84 | 1002.9 |
| 20260506203002 | 51 | 30 | 7.0 | 0.0 | 0.00 | 0.00 | 0.00 | 84 | 1002.9 |
| 20260506201502 | 51 | 40 | 7.8 | 0.0 | 0.00 | 0.00 | 0.00 | 82 | 1002.4 |
| 20260506200002 | 51 | 40 | 7.8 | 0.0 | 0.00 | 0.00 | 0.00 | 82 | 1002.4 |
| 20260506194502 | 51 | 40 | 7.8 | 0.0 | 0.00 | 0.00 | 0.00 | 84 | 1002.2 |
| 20260506193002 | 51 | 50 | 6.1 | 0.0 | 0.00 | 0.00 | 0.00 | 84 | 1002.2 |
| 20260506191502 | 51 | 50 | 6.1 | 0.0 | 0.00 | 0.00 | 0.00 | 84 | 1002.1 |
| 20260506190002 | 51 | 40 | 6.1 | 0.0 | 0.00 | 0.00 | 0.00 | 84 | 1002.1 |
| 20260506184502 | 52 | 40 | 6.1 | 0.0 | 0.00 | 0.00 | 0.00 | 83 | 1001.6 |
| 20260506183002 | 52 | 50 | 8.7 | 0.0 | 0.00 | 0.00 | 0.00 | 83 | 1001.6 |
| 20260506181502 | 53 | 40 | 7.8 | 0.0 | 0.00 | 0.00 | 0.00 | 86 | 1001.5 |
| 20260506180003 | 53 | 40 | 7.8 | 0.0 | 0.00 | 0.00 | 0.00 | 86 | 1001.5 |
| 20260506174502 | 53 | 40 | 7.8 | 0.0 | 0.00 | 0.00 | 0.00 | 84 | 1001.5 |
| 20260506173002 | 53 | 30 | 6.1 | 0.0 | 0.00 | 0.00 | 0.00 | 84 | 1001.5 |